Location: Unspecified
(49.8670°N, 0.0000°E)
Time: 11:19:06
(UTC+00:00)

Vanguard 1 - Pass Details

Date: 28 June 2019
Orbit: 653 x 3830 km, 34.3° (Epoch: 22 July)

Event Time Altitude Azimuth Distance (km) Brightness Sun altitude
Rises 00:40:38 0° 224° (SW) 7,963 - -16.4°
Reaches altitude 10° 00:46:55 10° 217° (SW) 6,879 - -16.2°
Exits shadow 00:47:12 11° 217° (SW) 6,829 13.8 -16.2°
Maximum altitude 01:05:31 36° 162° (SSE) 4,196 12.8 -15.5°
Drops below altitude 10° 01:18:18 10° 102° (ESE) 4,801 13.6 -15.0°
Sets 01:21:43 0° 94° (E) 5,418 14.1 -14.8°
